Date String (YYYY-MM-DD hh:mm:ss) UTC,Instrument flags,Ambient pressure (hPa),Sample flow (lpm),Bypass flow (lpm),Sample temperature (°C),Ambient temperature (°C),ASC tube jacket temperature (°C),LED temperature (°C),Box temperature (°C),Sample RH (%),Span deviation,Mass concentration (μg/m³),Mass concentration (μg/m³),Mass concentration (μg/m³)
DateTimeUTC,F1_M11,P_M11,Q1_M11,Q2_M11,T1_M11,T2_M11,T3_M11,T4_M11,T5_M11,U1_M11,ZSPAN_M11,X0_M11,X2_M11,X1_M11
2023-01-02 15:00:00,,0815.8,4.98,0.00,23.0,22.9,00.0,31.6,24.9,16.1,-001.4,0009.93,0006.87,0006.84
2023-01-02 15:01:00,,0815.9,4.99,0.00,23.0,22.4,00.0,31.7,24.8,16.1,-001.2,0009.90,0006.83,0006.79
2023-01-02 15:02:00,,0816.0,5.00,0.00,22.9,22.0,00.0,31.7,24.7,16.1,0000.0,0009.87,0006.80,0006.76
2023-01-02 15:03:00,,0816.0,5.00,0.00,22.9,21.7,00.0,31.7,24.6,16.1,0000.0,0009.53,0006.78,0006.74
2023-01-02 15:04:00,,0816.0,4.99,0.00,22.8,21.5,00.0,31.7,24.5,16.2,0000.0,0008.86,0006.78,0006.73
2023-01-02 15:05:00,,0816.1,5.00,0.00,22.8,21.4,00.0,31.7,24.5,16.2,0000.0,0008.46,0006.76,0006.72
2023-01-02 15:06:00,,0816.1,5.01,0.00,22.8,21.3,00.0,31.7,24.4,16.2,0000.0,0008.40,0006.73,0006.70
2023-01-02 15:07:00,,0816.1,5.00,0.00,22.7,21.2,00.0,31.7,24.4,16.2,0000.0,0008.72,0006.70,0006.66
2023-01-02 15:08:00,,0816.1,4.99,0.00,22.7,21.1,00.0,31.6,24.3,16.2,0000.0,0009.04,0006.63,0006.60
2023-01-02 15:09:00,,0816.1,5.00,0.00,22.7,21.0,00.0,31.6,24.3,16.3,0000.0,0009.00,0006.57,0006.54
2023-01-02 15:10:00,,0816.2,4.99,0.00,22.6,21.0,00.0,31.6,24.3,16.3,0000.0,0009.01,0006.57,0006.54
2023-01-02 15:11:00,,0816.1,4.99,0.00,22.6,21.0,00.0,31.6,24.3,16.4,0000.0,0009.09,0006.60,0006.57
2023-01-02 15:12:00,,0816.1,5.01,0.00,22.7,21.8,00.0,31.5,24.5,16.3,0000.0,0009.08,0006.63,0006.60
2023-01-02 15:13:00,,0816.1,5.00,0.00,22.8,22.7,00.0,31.5,24.7,16.2,0000.0,0009.12,0006.66,0006.63
2023-01-02 15:14:00,,0816.1,5.02,0.00,22.9,22.7,00.0,31.6,24.8,16.2,0000.0,0009.13,0006.67,0006.65
2023-01-02 15:15:00,,0816.1,4.99,0.00,22.9,22.3,00.0,31.6,24.7,16.2,0000.0,0009.12,0006.68,0006.66
2023-01-02 15:16:00,,0816.1,4.97,0.00,22.8,22.0,00.0,31.6,24.6,16.2,0000.0,0009.12,0006.67,0006.65
2023-01-02 15:17:00,,0816.1,5.02,0.00,22.8,21.7,00.0,31.6,24.5,16.2,0000.0,0009.14,0006.68,0006.65
2023-01-02 15:18:00,,0816.2,5.04,0.00,22.8,21.5,00.0,31.6,24.5,16.2,0000.0,0008.90,0006.73,0006.70
2023-01-02 15:19:00,,0816.2,4.98,0.00,22.8,21.4,00.0,31.6,24.5,16.2,0000.0,0008.49,0006.80,0006.78
2023-01-02 15:20:00,,0816.2,5.02,0.00,22.8,21.3,00.0,31.6,24.5,16.3,0000.0,0008.59,0006.90,0006.88
2023-01-02 15:21:00,,0816.3,4.98,0.00,22.7,21.2,00.0,31.6,24.4,16.3,0000.0,0008.69,0006.99,0006.96
2023-01-02 15:22:00,,0816.3,5.02,0.00,22.7,21.2,00.0,31.6,24.4,16.3,0000.0,0008.70,0007.05,0007.02
2023-01-02 15:23:00,,0816.3,5.01,0.00,22.7,21.1,00.0,31.6,24.4,16.4,0000.0,0008.77,0007.13,0007.09
2023-01-02 15:24:00,,0816.3,4.99,0.00,22.7,21.1,00.0,31.6,24.3,16.4,0000.0,0008.84,0007.19,0007.16
2023-01-02 15:25:00,,0816.3,4.99,0.00,22.6,21.0,00.0,31.6,24.3,16.4,0000.0,0008.89,0007.23,0007.20
2023-01-02 15:26:00,,0816.3,5.01,0.00,22.6,21.0,00.0,31.6,24.3,16.4,0000.0,0008.96,0007.29,0007.25
2023-01-02 15:27:00,,0816.3,5.01,0.00,22.6,21.1,00.0,31.5,24.3,16.5,0000.0,0009.10,0007.40,0007.35
2023-01-02 15:28:00,,0816.3,5.00,0.00,22.7,21.8,00.0,31.5,24.5,16.5,0000.0,0009.19,0007.49,0007.45
2023-01-02 15:29:00,,0816.3,4.99,0.00,22.8,22.8,00.0,31.5,24.7,16.4,0000.0,0009.23,0007.54,0007.50
2023-01-02 15:30:00,,0816.3,4.99,0.00,22.9,22.8,00.0,31.5,24.8,16.3,0000.0,0009.28,0007.59,0007.55
2023-01-02 15:31:00,,0816.3,5.00,0.00,22.9,22.4,00.0,31.6,24.7,16.3,0000.0,0009.29,0007.60,0007.55
2023-01-02 15:32:00,,0816.4,5.00,0.00,22.8,22.0,00.0,31.6,24.6,16.3,0000.0,0009.30,0007.62,0007.58
2023-01-02 15:33:00,,0816.3,5.01,0.00,22.8,21.8,00.0,31.6,24.6,16.3,0000.0,0009.29,0007.62,0007.59
2023-01-02 15:34:00,,0816.4,5.00,0.00,22.8,21.6,00.0,31.6,24.5,16.4,0000.0,0009.30,0007.63,0007.60
2023-01-02 15:35:00,,0816.4,5.00,0.00,22.8,21.5,00.0,31.6,24.5,16.4,0000.0,0009.34,0007.66,0007.62
2023-01-02 15:36:00,,0816.3,4.99,0.00,22.8,21.4,00.0,31.6,24.5,16.4,0000.0,0009.40,0007.71,0007.67
2023-01-02 15:37:00,,0816.3,5.00,0.00,22.8,21.3,00.0,31.6,24.5,16.4,0000.0,0009.45,0007.75,0007.70
2023-01-02 15:38:00,,0816.3,5.00,0.00,22.7,21.2,00.0,31.6,24.4,16.4,0000.0,0009.41,0007.75,0007.71
2023-01-02 15:39:00,,0816.4,5.00,0.00,22.7,21.2,00.0,31.6,24.4,16.5,0000.0,0009.40,0007.76,0007.72
2023-01-02 15:40:00,,0816.4,5.01,0.00,22.7,21.1,00.0,31.6,24.3,16.5,0000.0,0009.43,0007.76,0007.72
2023-01-02 15:41:00,,0816.4,5.00,0.00,22.6,21.0,00.0,31.6,24.3,16.6,0000.0,0009.46,0007.79,0007.74
2023-01-02 15:42:00,,0816.3,4.99,0.00,22.6,20.9,00.0,31.5,24.2,16.6,0000.0,0009.50,0007.83,0007.79
2023-01-02 15:43:00,,0816.3,5.00,0.00,22.6,20.9,00.0,31.5,24.2,16.7,0000.0,0010.11,0007.87,0007.82
2023-01-02 15:44:00,,0816.3,5.01,0.00,22.6,21.7,00.0,31.5,24.4,16.7,0000.0,0010.48,0007.90,0007.85
2023-01-02 15:45:00,,0816.3,5.00,0.00,22.7,22.6,00.0,31.5,24.7,16.6,0000.0,0010.53,0007.95,0007.89
2023-01-02 15:46:00,,0816.3,5.00,0.00,22.8,23.2,00.0,31.5,24.8,16.6,0000.0,0010.56,0007.98,0007.92
2023-01-02 15:47:00,,0816.3,4.99,0.00,22.9,22.7,00.0,31.6,24.8,16.5,0000.0,0010.59,0008.02,0007.96
2023-01-02 15:48:00,,0816.3,5.00,0.00,22.8,22.2,00.0,31.6,24.7,16.6,0000.0,0010.57,0008.02,0007.97
2023-01-02 15:49:00,,0816.3,5.00,0.00,22.8,21.9,00.0,31.6,24.6,16.6,0000.0,0010.57,0008.01,0007.97
2023-01-02 15:50:00,,0816.3,5.00,0.00,22.8,21.6,00.0,31.6,24.5,16.7,0000.0,0010.61,0008.00,0007.95
2023-01-02 15:51:00,,0816.4,5.00,0.00,22.8,21.4,00.0,31.6,24.5,16.7,0000.0,0010.62,0008.00,0007.94
2023-01-02 15:52:00,,0816.4,5.00,0.00,22.7,21.3,00.0,31.6,24.4,16.8,0000.0,0010.64,0007.99,0007.94
2023-01-02 15:53:00,,0816.5,4.99,0.00,22.7,21.2,00.0,31.6,24.4,16.9,0000.0,0010.63,0007.99,0007.93
2023-01-02 15:54:00,,0816.7,5.00,0.00,22.7,21.1,00.0,31.6,24.3,17.0,0000.0,0010.19,0008.00,0007.94
2023-01-02 15:55:00,,0816.6,5.00,0.00,22.6,21.0,00.0,31.6,24.3,17.6,0000.0,0010.32,0008.03,0007.97
2023-01-02 15:56:00,,0816.7,5.00,0.00,22.6,21.0,00.0,31.5,24.3,17.6,0000.0,0010.39,0008.03,0007.97
2023-01-02 15:57:00,,0816.6,4.99,0.00,22.6,21.0,00.0,31.5,24.2,17.2,0000.0,0010.54,0008.02,0007.95
2023-01-02 15:58:00,,0816.6,5.00,0.00,22.6,21.0,00.0,31.5,24.2,17.1,0000.0,0010.49,0007.98,0007.92
2023-01-02 15:59:00,,0816.6,5.00,0.00,22.5,21.0,00.0,31.5,24.2,17.1,0000.0,0010.47,0007.97,0007.91
